Terminal Aerodrome Forecast
Issued by NWS Twin Cities, MN

Home | Current Version | Previous Version | Graphics & Text | Print | Product List | Glossary On
Versions: 1 2 3 4 5 6 7 8 9 10 11 12 13 14 15 16 17 18 19 20 21 22 23 24 25 26 27 28 29 30 31
669
FTUS43 KMPX 282048 AAA
TAFMSP
TAF AMD
KMSP 282048Z 2821/2924 17010KT P6SM SCT035 BKN250
     FM290900 17006KT P6SM SCT010
      TEMPO 2909/2913 4SM BR BKN010
     FM291400 19010KT P6SM SCT030 BKN250=

USA.gov is the U.S. government's official web portal to all federal, state and local government web resources and services.